Flag for U.S.A. Weather past 2 weeks in Fort Lauderdale, Florida, U.S.A.

Now
86 °F

Scattered clouds.


Feels Like: 96 °F
Forecast: 79 / 89 °F
Wind: 6 mph from West

Location: Fort Lauderdale / Hollywood International Airport

Current Time: Jul 28, 2014 at 9:49:40 AM

Latest Report: Jul 28, 2014 at 8:53 AM


Visibility: 10 mi

Pressure: 30.08 "Hg

Humidity: 72%

Dew point: 76 °F

Location of Fort LauderdaleLocation

Historic Weather in Fort Lauderdale — Graph

°F

Fort Lauderdale temperature yesterday

Maximum temperature yesterday: 92 °F (at 1:53 PM)
Minimum temperature yesterday: 80 °F (at 2:53 AM)
Average temperature yesterday: 86 °F

Past Weeks' High & Low Weather Summary

 TemperatureHumidityPressure
High94 °F (Jul 18, 2:53 PM)97% (Jul 23, 12:53 PM)30.11 "Hg (Jul 23, 12:53 PM)
Low75 °F (Jul 17, 12:53 PM)46% (Jul 18, 2:53 PM)29.96 "Hg (Jul 16, 5:53 PM)
Average84 °F74%30.04 "Hg
* Reported Jul 13 7:53 AM — Jul 28 7:53 AM, Fort Lauderdale, Weather by CustomWeather, © 2014

Note: Actual official high and low records may vary slightly from our data, if they occured in-between our weather recording intervals... More about our weather records

Advertising

Fort Lauderdale weather history for previous 24 hours

 ConditionsComfort  
Time TempWeatherWind HumidityBarometerVisibility
7:53 AM
Jul 28
84 °FBroken clouds.5 mph77%30.08 "Hg10 mi
6:53 AM83 °FPassing clouds.No wind79%30.06 "Hg10 mi
5:53 AM83 °FPassing clouds.No wind77%30.04 "Hg10 mi
4:53 AM83 °FPartly cloudy.No wind74%30.04 "Hg10 mi
3:53 AM84 °FOvercast.No wind72%30.04 "Hg10 mi
2:53 AM84 °FPartly cloudy.No wind74%30.05 "Hg10 mi
1:53 AM85 °FPartly cloudy.No wind72%30.08 "Hg10 mi
12:53 AM85 °FPartly cloudy.No wind72%30.09 "Hg10 mi
11:53 PM
Jul 27
84 °FPartly cloudy.No wind74%30.09 "Hg10 mi
10:53 PM85 °FPassing clouds.3 mph70%30.08 "Hg10 mi
9:53 PM87 °FPassing clouds.7 mph63%30.06 "Hg10 mi
8:53 PM87 °FBroken clouds.7 mph63%30.06 "Hg10 mi
7:53 PM87 °FPartly sunny.9 mph63%30.06 "Hg10 mi
6:53 PM90 °FPartly sunny.17 mph57%30.06 "Hg10 mi
5:53 PM91 °FPartly sunny.16 mph56%30.05 "Hg10 mi
4:53 PM92 °FPartly sunny.14 mph52%30.04 "Hg10 mi
3:53 PM92 °FPartly sunny.9 mph52%30.06 "Hg10 mi
2:53 PM92 °FPassing clouds.12 mph52%30.07 "Hg10 mi
1:53 PM92 °FPassing clouds.8 mph49%30.09 "Hg10 mi
12:53 PM91 °FPassing clouds.12 mph56%30.10 "Hg10 mi
11:53 AM91 °FPassing clouds.7 mph57%30.11 "Hg10 mi
10:53 AM90 °FBroken clouds.7 mph59%30.11 "Hg10 mi
9:53 AM87 °FPassing clouds.No wind67%30.11 "Hg10 mi
Weather by CustomWeather, © 2014

See weather overviewHow to use our weather pages